Regional Weather Roundup
Issued by NWS

Home | Current Version | Previous Version | Graphics & Text | Print | Product List | Glossary On
Versions: 1 2 3 4 5 6 7 8 9 10 11 12 13 14 15 16 17 18 19 20 21 22 23 24 25 26 27
000
ASUS45 KCYS 271910
RWRWY

WYOMING REGIONAL WEATHER ROUNDUP
NATIONAL WEATHER SERVICE CHEYENNE WY
100 PM MDT WED APR 27 2016

NOTE:  "FAIR" INDICATES FEW OR NO CLOUDS BELOW 12,000 FEET
WITH NO SIGNIFICANT WEATHER AND/OR OBSTRUCTIONS TO VISIBILITY.

WYZ001-272000-
YELLOWSTONE NATIONAL PARK

CITY           SKY/WX    TMP DP  RH WIND       PRES   REMARKS
LK YELLOWSTONE   N/A     36  22  56 VRB3      29.90F
W YELLOWSTONE  NOT AVBL

$$
WYZ002>013-054>058-071-098>099-272000-
NORTHERN WYOMING

CITY           SKY/WX    TMP DP  RH WIND       PRES   REMARKS
JACKSON        MOSUNNY   46  23  39 E10       29.84F
CODY           CLOUDY    37  32  81 N9        29.92S WCI  31
GREYBULL       CLOUDY    44  30  57 NW18G24   29.91F
WORLAND        LGT RAIN  40  35  83 NW9       29.92F WCI  34
SHERIDAN       CLOUDY    40  33  76 N17       29.92S WCI  31
BUFFALO          N/A     38  32  79 N18       29.89F WCI  28
GILLETTE       LGT SNOW  35  32  88 NW16      29.87F FOG     WCI  25
HULETT         LGT SNOW  36  34  93 N12       29.87F WCI  27
NEWCASTLE      FAIR      37  32  81 NW21      29.83F WCI  27

$$
WYZ014>020-022>026-101>103-272000-
CENTRAL WYOMING

CITY           SKY/WX    TMP DP  RH WIND       PRES   REMARKS
BIG PINEY      CLOUDY    45  23  42 SE5       29.85F
PINEDALE       CLOUDY    41  25  52 N14       29.87S
DUBOIS         FLURRIES  36  30  80 E10       29.85F WCI  28
LANDER         FLURRIES  35  32  88 SW3       29.90F
RIVERTON       CLOUDY    39  29  67 E3        29.91F
CASPER         CLOUDY    36  26  67 N6        29.90S WCI  31
DOUGLAS        PTSUNNY   36  30  79 NW17      29.88F WCI  26

$$
WYZ021-027>030-104>119-272000-
SOUTHERN WYOMING

CITY           SKY/WX    TMP DP  RH WIND       PRES   REMARKS
EVANSTON       FAIR      49  30  48 VRB6      29.85F
KEMMERER       FAIR      45  32  61 SW8       29.87F
FORT BRIDGER   CLEAR     45  36  70 N7        29.90F
ROCK SPRINGS   PTSUNNY   39  31  72 NE5       29.88F
DIXON          CLOUDY    44  31  59 NW3       29.89S
RAWLINS        CLOUDY    37  28  70 NW7       29.88F WCI  32
SARATOGA       CLOUDY    36  32  87 N8        29.88F WCI  29
LARAMIE        FAIR      32  25  75 MISG      29.82R
CHEYENNE       FAIR      37  27  67 N21G29    29.83S WCI  26
TORRINGTON     PTSUNNY   45  30  55 NW22G36   29.81S
PINE BLUFFS    FAIR      43  28  56 N24G37    29.81F

$$




USA.gov is the U.S. government's official web portal to all federal, state and local government web resources and services.